Location: Mattawa
(46.3175°N, 78.7022°W)
Time: 10:52:16
(UTC-05:00)

ISS - Visible Passes

Search period start: 19 February 2018 00:00
Search period end: 01 March 2018 00:00
Orbit: 403 x 407 km, 51.6° (Epoch: 20 February)

Date Brightness Start Highest point End Pass type
(mag) Time Alt. Az. Time Alt. Az. Time Alt. Az.
27 Feb -1.3 05:43:03 10° S 05:45:27 19° SE 05:47:53 10° E visible
28 Feb -0.8 04:52:25 10° SSE 04:53:24 11° SE 04:54:22 10° ESE visible
28 Feb -3.5 06:26:05 10° SW 06:29:19 68° SSE 06:32:36 10° ENE visible
